Tiempo cada hora Caxhuacán

Hoy, 23 Abril, Viernes

Tiempo Temperatura Precipitaciones Viento Presión Humedad
00:00 +22°C° 0 mm 1 mps 696 mmHg 86%
01:00 +22°C° 0 mm 1 mps 695 mmHg 85%
02:00 +22°C° 0 mm 1 mps 695 mmHg 85%
03:00 +22°C° 0 mm 1 mps 695 mmHg 83%
04:00 +22°C° 0 mm 1 mps 695 mmHg 81%
05:00 +22°C° 0 mm 1 mps 695 mmHg 79%
06:00 +24°C° 0 mm 1 mps 696 mmHg 72%
07:00 +26°C° 0 mm 1 mps 696 mmHg 65%
08:00 +28°C° 0 mm 1 mps 696 mmHg 58%
09:00 +29°C° 0 mm 2 mps 696 mmHg 54%
10:00 +31°C° 0 mm 2 mps 696 mmHg 50%
11:00 +32°C° 0 mm 2 mps 696 mmHg 45%
12:00 +34°C° 0 mm 2 mps 695 mmHg 44%
13:00 +34°C° 0 mm 2 mps 694 mmHg 43%
14:00 +35°C° 0 mm 2 mps 694 mmHg 42%
15:00 +32°C° 0.1 mm 2 mps 694 mmHg 48%
16:00 +31°C° 0.1 mm 2 mps 693 mmHg 54%
17:00 +30°C° 0.1 mm 1 mps 693 mmHg 60%
18:00 +29°C° 0 mm 1 mps 693 mmHg 62%
19:00 +28°C° 0 mm 2 mps 693 mmHg 63%
20:00 +27°C° 0 mm 2 mps 693 mmHg 65%
21:00 +26°C° 0 mm 2 mps 693 mmHg 59%
22:00 +26°C° 0 mm 2 mps 693 mmHg 54%
23:00 +26°C° 0 mm 3 mps 692 mmHg 48%

Mañana, 24 Abril, Sábado

Tiempo Temperatura Precipitaciones Viento Presión Humedad
00:00 +26°C° 0 mm 3 mps 692 mmHg 48%
01:00 +25°C° 0 mm 3 mps 692 mmHg 47%
02:00 +25°C° 0 mm 3 mps 692 mmHg 47%
03:00 +25°C° 0 mm 3 mps 692 mmHg 47%
04:00 +24°C° 0 mm 3 mps 693 mmHg 46%
05:00 +24°C° 0 mm 3 mps 694 mmHg 46%
06:00 +27°C° 0 mm 2 mps 694 mmHg 40%
07:00 +30°C° 0 mm 2 mps 695 mmHg 33%
08:00 +33°C° 0 mm 1 mps 696 mmHg 27%
09:00 +35°C° 0 mm 2 mps 696 mmHg 27%
10:00 +35°C° 0 mm 3 mps 697 mmHg 27%
11:00 +36°C° 0 mm 5 mps 697 mmHg 27%
12:00 +36°C° 0 mm 5 mps 697 mmHg 29%
13:00 +36°C° 0 mm 5 mps 696 mmHg 31%
14:00 +36°C° 0 mm 5 mps 696 mmHg 33%
15:00 +34°C° 0.2 mm 4 mps 696 mmHg 45%
16:00 +30°C° 0.2 mm 3 mps 696 mmHg 57%
17:00 +28°C° 0.2 mm 3 mps 697 mmHg 69%
18:00 +27°C° 0.2 mm 2 mps 697 mmHg 75%
19:00 +26°C° 0.2 mm 1 mps 697 mmHg 80%
20:00 +23°C° 0.2 mm 0 mps 698 mmHg 86%
21:00 +22°C° 0.1 mm 0 mps 698 mmHg 86%
22:00 +24°C° 0.1 mm 1 mps 698 mmHg 87%
23:00 +24°C° 0.1 mm 1 mps 697 mmHg 87%

Pasado mañana, 25 Abril, Domingo

Tiempo Temperatura Precipitaciones Viento Presión Humedad
00:00 +23°C° 0 mm 1 mps 697 mmHg 88%
01:00 +21°C° 0 mm 0 mps 697 mmHg 88%
02:00 +21°C° 0 mm 0 mps 696 mmHg 88%
03:00 +21°C° 0 mm 0 mps 697 mmHg 89%
04:00 +20°C° 0 mm 0 mps 697 mmHg 89%
05:00 +20°C° 0 mm 0 mps 697 mmHg 90%
06:00 +24°C° 0 mm 1 mps 698 mmHg 83%
07:00 +26°C° 0 mm 1 mps 699 mmHg 77%
08:00 +27°C° 0 mm 2 mps 699 mmHg 70%
09:00 +29°C° 0 mm 2 mps 699 mmHg 64%
10:00 +30°C° 0 mm 2 mps 699 mmHg 58%
11:00 +31°C° 0 mm 3 mps 699 mmHg 52%
12:00 +33°C° 0.1 mm 3 mps 698 mmHg 51%
13:00 +33°C° 0.1 mm 3 mps 697 mmHg 50%
14:00 +33°C° 0.1 mm 3 mps 697 mmHg 49%
15:00 +30°C° 1.5 mm 3 mps 697 mmHg 57%
16:00 +28°C° 1.5 mm 3 mps 697 mmHg 66%
17:00 +26°C° 1.5 mm 3 mps 697 mmHg 74%
18:00 +25°C° 0.4 mm 3 mps 697 mmHg 75%
19:00 +25°C° 0.4 mm 2 mps 698 mmHg 75%
20:00 +24°C° 0.4 mm 2 mps 698 mmHg 76%
21:00 +24°C° 0 mm 2 mps 698 mmHg 75%
22:00 +24°C° 0 mm 2 mps 697 mmHg 73%
23:00 +24°C° 0 mm 2 mps 697 mmHg 72%

26 Abril, Lunes

Tiempo Temperatura Precipitaciones Viento Presión Humedad
00:00 +24°C° 0 mm 1 mps 696 mmHg 72%
01:00 +24°C° 0 mm 1 mps 696 mmHg 72%
02:00 +23°C° 0 mm 1 mps 696 mmHg 72%
03:00 +23°C° 0 mm 1 mps 696 mmHg 72%
04:00 +23°C° 0 mm 1 mps 696 mmHg 72%
05:00 +22°C° 0 mm 1 mps 696 mmHg 73%
06:00 +25°C° 0 mm 1 mps 697 mmHg 66%
07:00 +27°C° 0 mm 1 mps 697 mmHg 59%
08:00 +29°C° 0 mm 1 mps 697 mmHg 53%
09:00 +30°C° 0 mm 2 mps 697 mmHg 49%
10:00 +32°C° 0 mm 2 mps 697 mmHg 45%
11:00 +35°C° 0 mm 3 mps 697 mmHg 41%
12:00 +35°C° 0 mm 3 mps 696 mmHg 41%
13:00 +36°C° 0 mm 4 mps 696 mmHg 41%
14:00 +36°C° 0 mm 4 mps 695 mmHg 40%
15:00 +34°C° 0.2 mm 4 mps 695 mmHg 47%
16:00 +33°C° 0.2 mm 3 mps 695 mmHg 53%
17:00 +30°C° 0.2 mm 3 mps 695 mmHg 59%
18:00 +29°C° 0.1 mm 2 mps 695 mmHg 63%
19:00 +28°C° 0.1 mm 2 mps 695 mmHg 67%
20:00 +26°C° 0.1 mm 1 mps 695 mmHg 71%
21:00 +26°C° 0 mm 1 mps 695 mmHg 72%
22:00 +26°C° 0 mm 1 mps 695 mmHg 72%
23:00 +25°C° 0 mm 1 mps 695 mmHg 73%

27 Abril, Martes

Tiempo Temperatura Precipitaciones Viento Presión Humedad
00:00 +25°C° 0.1 mm 1 mps 695 mmHg 75%
01:00 +24°C° 0.1 mm 1 mps 695 mmHg 77%
02:00 +23°C° 0.1 mm 1 mps 695 mmHg 78%
03:00 +23°C° 0 mm 1 mps 695 mmHg 78%
04:00 +23°C° 0 mm 1 mps 695 mmHg 77%
05:00 +23°C° 0 mm 1 mps 695 mmHg 77%
06:00 +25°C° 0 mm 1 mps 696 mmHg 69%
07:00 +28°C° 0 mm 1 mps 696 mmHg 61%
08:00 +30°C° 0 mm 1 mps 696 mmHg 53%
09:00 +32°C° 0 mm 2 mps 696 mmHg 49%
10:00 +34°C° 0 mm 2 mps 696 mmHg 46%
11:00 +36°C° 0 mm 3 mps 696 mmHg 42%
12:00 +36°C° 0.1 mm 3 mps 695 mmHg 41%
13:00 +37°C° 0.1 mm 3 mps 694 mmHg 41%
14:00 +37°C° 0.1 mm 4 mps 694 mmHg 40%
15:00 +36°C° 0.2 mm 3 mps 694 mmHg 45%
16:00 +34°C° 0.2 mm 3 mps 694 mmHg 51%
17:00 +31°C° 0.2 mm 2 mps 694 mmHg 57%
18:00 +30°C° 0 mm 2 mps 694 mmHg 62%
19:00 +28°C° 0 mm 1 mps 694 mmHg 67%
20:00 +27°C° 0 mm 1 mps 694 mmHg 71%
21:00 +26°C° 0 mm 1 mps 693 mmHg 70%
22:00 +26°C° 0 mm 1 mps 693 mmHg 69%
23:00 +26°C° 0 mm 2 mps 693 mmHg 68%

28 Abril, Miércoles

Tiempo Temperatura Precipitaciones Viento Presión Humedad
00:00 +26°C° 0 mm 2 mps 693 mmHg 67%
01:00 +26°C° 0 mm 2 mps 692 mmHg 66%
02:00 +25°C° 0 mm 2 mps 692 mmHg 64%
03:00 +25°C° 0 mm 2 mps 693 mmHg 63%
04:00 +25°C° 0 mm 2 mps 693 mmHg 62%
05:00 +24°C° 0 mm 2 mps 693 mmHg 61%
06:00 +27°C° 0 mm 1 mps 694 mmHg 55%
07:00 +29°C° 0 mm 1 mps 694 mmHg 50%
08:00 +31°C° 0 mm 1 mps 695 mmHg 45%
09:00 +34°C° 0 mm 2 mps 695 mmHg 41%
10:00 +35°C° 0 mm 2 mps 694 mmHg 38%
11:00 +37°C° 0 mm 3 mps 694 mmHg 35%
12:00 +38°C° 0 mm 3 mps 694 mmHg 34%
13:00 +38°C° 0 mm 3 mps 693 mmHg 33%
14:00 +40°C° 0 mm 4 mps 693 mmHg 32%
15:00 +38°C° 0 mm 3 mps 692 mmHg 37%
16:00 +36°C° 0 mm 3 mps 692 mmHg 42%
17:00 +35°C° 0 mm 2 mps 692 mmHg 46%
18:00 +33°C° 0.3 mm 3 mps 693 mmHg 52%
19:00 +30°C° 0.3 mm 3 mps 693 mmHg 57%
20:00 +28°C° 0.3 mm 4 mps 693 mmHg 62%
21:00 +27°C° 1.3 mm 4 mps 693 mmHg 63%
22:00 +25°C° 1.3 mm 4 mps 693 mmHg 64%
23:00 +23°C° 1.3 mm 4 mps 693 mmHg 65%
Mostrar más

Necesitamos Su Consentimiento

Meteoprog y nuestros Proveedores de Servicios pueden almacenar y acceder a sus datos personales como cookies, identificadores de dispositivo u otras tecnologías similares de su dispositivo y procesar dichos datos para personalizar contenido y anuncios, además de ofrecer funciones de redes sociales y analizar el tráfico.

  • Almacenar y/o acceder a información en su dispositivo

    Se puede almacenar o acceder a cookies, identificadores de dispositivo u otra información de su dispositivo para los fines anteriormente indicados.

  • Anuncios y contenido personalizados, medición de anuncios y contenido, percepciones del público, y desarrollo de productos

    Los anuncios y el contenido pueden personalizarse en base a su perfil. Se pueden añadir más datos para personalizar mejor los anuncios y contenidos. Se puede medir el rendimiento de los anuncios y contenidos. Se puede obtener la percepción sobre el público que ha visto los anuncios y contenidos. Dichos datos pueden usarse para desarrollar o mejorar la experiencia del usuario, sistemas y software.

Al hacer clic en ‘Estoy De Acuerdo’ usted permitirá el uso de las cookies, identificadores de dispositivo, balizas web u otras tecnologías similares indicadas. Su configuración puede cambiarse desde el navegador de su dispositivo.

Para ciertos fines, los intereses legítimos pueden ser considerados por encima del consentimiento. Puede leer más sobre ello en nuestra Política de Privacidad y Cookies.